Aspen, USA 16 day weather forecast

Slopes altitude range 2425 m - 3415m

Number of lifts: 36 Pistes: 241km

In some cases the lift and piste totals shown are for the ski domain (e.g. Three Valleys) rather than individual resort (e.g. Courchevel)

Overview

The 16 day weather forecast is fully updated 4 times every day.

    • Tue 17 JUL 2018
    • Tue 17
    • 6C 9C
    • Wed 18 JUL 2018
    • Wed 18
    • 6C 8C
    • Thu 19 JUL 2018
    • Thu 19
    • 5C 7C
    • Fri 20 JUL 2018
    • Fri 20
    • 6C 8C
    • Sat 21 JUL 2018
    • Sat 21
    • 7C 8C
    • Sun 22 JUL 2018
    • Sun 22
    • 9C 9C
    • Mon 23 JUL 2018
    • Mon 23
    • 7C 8C
    • Tue 24 JUL 2018
    • Tue 24
    • 6C 8C
    • Wed 25 JUL 2018
    • Wed 25
    • 5C 7C
    • Thu 26 JUL 2018
    • Thu 26
    • 6C 7C
    • Fri 27 JUL 2018
    • Fri 27
    • 9C 22C
    • Sat 28 JUL 2018
    • Sat 28
    • 8C 22C
    • Sun 29 JUL 2018
    • Sun 29
    • 9C 22C
    • Mon 30 JUL 2018
    • Mon 30
    • 9C 22C
    • Tue 31 JUL 2018
    • Tue 31
    • 11C 17C
    • Wed 01 AUG 2018
    • Wed 01
    • 9C 17C

Date:

Time Type 0°C level Temp Chill Snow Cloud Speed Gust Dir Press
3:00 5124m 10°C 10_3 0cm 99% 3mph 3mph 1020mB
6:00 5280m 9°C 9_4 0cm 99% 4mph 5mph 1022mB
9:00 5327m 7°C 7_5 0cm 100% 5mph 6mph 1021mB
12:00 5259m 9°C 9_2 0cm 100% 2mph 3mph 1022mB
15:00 5183m 13°C 13_3 0cm 100% 3mph 4mph 1021mB
18:00 5122m 18°C 18_6 0cm 89% 6mph 7mph 1019mB
21:00 5262m 18°C 18_6 0cm 100% 6mph 6mph 1017mB
0:00 5304m 18°C 18_7 0cm 100% 7mph 10mph 1017mB
3:00 5220m 10°C 10_2 0cm 100% 2mph 2mph 1020mB
6:00 5172m 8°C 8_1 0cm 100% 1mph 2mph 1022mB
9:00 5063m 7°C 7_0 0cm 100% 0mph 2mph 1022mB
12:00 4983m 8°C 8_1 0cm 100% 1mph 2mph 1023mB
15:00 4991m 13°C 13_4 0cm 100% 4mph 4mph 1021mB
18:00 4969m 16°C 16_6 0cm 100% 6mph 7mph 1019mB
21:00 5143m 16°C 16_6 0cm 100% 6mph 8mph 1016mB
0:00 5204m 16°C 16_8 0cm 100% 8mph 9mph 1016mB
3:00 5228m 9°C 9_4 0cm 100% 4mph 5mph 1019mB
6:00 5262m 7°C 7_4 0cm 100% 4mph 4mph 1021mB
9:00 5229m 6°C 6_3 0cm 100% 3mph 4mph 1021mB
12:00 5164m 7°C 7_3 0cm 100% 3mph 4mph 1022mB
15:00 5161m 14°C 14_0 0cm 100% 0mph 0mph 1020mB
18:00 5143m 18°C 18_4 0cm 100% 4mph 3mph 1017mB
21:00 5346m 18°C 18_6 0cm 100% 6mph 5mph 1015mB
0:00 5392m 18°C 18_9 0cm 97% 9mph 10mph 1014mB
3:00 5447m 10°C 10_4 0cm 94% 4mph 5mph 1017mB
6:00 5303m 8°C 8_5 0cm 79% 5mph 6mph 1019mB
9:00 5262m 7°C 7_4 0cm 72% 4mph 5mph 1020mB
12:00 5276m 8°C 8_3 0cm 47% 3mph 4mph 1021mB
15:00 5329m 16°C 16_2 0cm 98% 2mph 2mph 1019mB
18:00 5278m 20°C 20_4 0cm 98% 4mph 3mph 1017mB
21:00 5424m 20°C 20_8 0cm 99% 8mph 6mph 1015mB
0:00 5344m 14°C 14_7 0cm 100% 7mph 9mph 1018mB
3:00 5338m 9°C 9_7 0cm 100% 7mph 8mph 1020mB
6:00 5348m 8°C 8_8 0cm 100% 8mph 9mph 1022mB
9:00 5286m 7°C 7_7 0cm 98% 7mph 8mph 1022mB
12:00 5294m 8°C 8_6 0cm 99% 6mph 7mph 1022mB
15:00 5298m 14°C 14_3 0cm 100% 3mph 3mph 1020mB
18:00 5303m 17°C 17_5 0cm 100% 5mph 5mph 1018mB
21:00 5276m 17°C 17_6 0cm 100% 6mph 7mph 1016mB
0:00 5344m 17°C 17_8 0cm 93% 8mph 8mph 1017mB
3:00 5408m 11°C 11_6 0cm 85% 6mph 7mph 1021mB
6:00 5351m 9°C 9_3 0cm 92% 3mph 4mph 1022mB
9:00 5232m 9°C 9_2 0cm 100% 2mph 3mph 1022mB
12:00 5224m 9°C 9_3 0cm 100% 3mph 3mph 1022mB
15:00 5216m 12°C 12_3 0cm 100% 3mph 3mph 1022mB
18:00 5341m 16°C 16_5 0cm 100% 5mph 5mph 1020mB
21:00 5260m 16°C 16_6 0cm 100% 6mph 7mph 1018mB
0:00 5290m 15°C 15_5 0cm 99% 5mph 7mph 1018mB
3:00 5384m 9°C 9_1 0cm 100% 1mph 2mph 1019mB
6:00 5216m 8°C 8_1 0cm 100% 1mph 2mph 1022mB
9:00 5214m 8°C 8_2 0cm 100% 2mph 3mph 1021mB
12:00 5282m 8°C 8_3 0cm 100% 3mph 4mph 1021mB
15:00 5297m 13°C 13_4 0cm 100% 4mph 4mph 1019mB
18:00 5299m 17°C 17_5 0cm 82% 5mph 6mph 1017mB
21:00 5283m 17°C 17_6 0cm 21% 6mph 6mph 1015mB
0:00 5361m 16°C 16_7 0cm 60% 7mph 8mph 1015mB
3:00 5254m 10°C 10_4 0cm 9% 4mph 5mph 1018mB
6:00 5236m 8°C 8_4 0cm 31% 4mph 4mph 1020mB
9:00 5157m 7°C 7_3 0cm 50% 3mph 3mph 1020mB
12:00 5197m 8°C 8_2 0cm 75% 2mph 3mph 1021mB
15:00 5144m 13°C 13_2 0cm 100% 2mph 2mph 1020mB
18:00 5078m 18°C 18_5 0cm 69% 5mph 5mph 1017mB
21:00 5208m 18°C 18_5 0cm 90% 5mph 6mph 1016mB
0:00 5281m 17°C 17_7 0cm 89% 7mph 11mph 1016mB
3:00 5272m 10°C 10_5 0cm 2% 5mph 7mph 1018mB
6:00 5272m 7°C 7_2 0cm 1% 2mph 3mph 1019mB
9:00 5133m 6°C 6_2 0cm 55% 2mph 3mph 1020mB
12:00 5100m 7°C 7_3 0cm 74% 3mph 4mph 1022mB
15:00 5106m 15°C 15_1 0cm 31% 1mph 1mph 1019mB
18:00 5133m 18°C 18_4 0cm 26% 4mph 4mph 1017mB
21:00 5298m 18°C 18_6 0cm 62% 6mph 7mph 1015mB
0:00 5332m 18°C 18_9 0cm 67% 9mph 11mph 1016mB
3:00 5315m 10°C 10_6 0cm 1% 6mph 7mph 1019mB
6:00 5258m 7°C 7_3 0cm 1% 3mph 3mph 1021mB
9:00 5169m 6°C 6_4 0cm 5% 4mph 4mph 1022mB
12:00 5146m 7°C 7_4 0cm 44% 4mph 4mph 1022mB
15:00 5101m 14°C 14_1 0cm 63% 1mph 1mph 1020mB
18:00 5119m 19°C 19_6 0cm 31% 6mph 7mph 1018mB
21:00 5302m 19°C 19_9 0cm 31% 9mph 9mph 1016mB
0:00 5361m 19°C 19_8 0cm 65% 8mph 10mph 1016mB
Afternoon 0.00520833mm 0.0625 5171m 22°C 22_4 0cm 32% 4mph 5mph 1022mB
Morning 0.0364583mm 0.4375 5288m 8°C 8_11 0cm 79% 11mph 14mph 1016mB
Afternoon 0.0104167mm 0.125 5169m 22°C 22_4 0cm 30% 4mph 5mph 1021mB
Morning 0mm 0 5349m 8°C 8_6 0cm 85% 6mph 9mph 1016mB
Afternoon 0.0104167mm 0 5331m 22°C 22_5 0cm 88% 5mph 7mph 1023mB
Morning 0.00520833mm 0 5357m 9°C 9_3 0cm 94% 3mph 6mph 1016mB
Afternoon 0mm 0 5282m 22°C 22_2 0cm 53% 2mph 3mph 1022mB
Morning 0.0572917mm 0 5506m 9°C 9_1 0cm 78% 1mph 4mph 1016mB
Afternoon 2.79167mm 24.9375 5307m 17°C 17_1 0cm 100% 1mph 2mph 1020mB
Morning 1.47396mm 17.375 5392m 11°C 11_5 0cm 92% 5mph 9mph 1017mB
Afternoon 0.416667mm 5 5232m 17°C 17_2 0cm 92% 2mph 3mph 1023mB
Morning 0mm 0 5460m 9°C 9_4 0cm 75% 4mph 6mph 1016mB

16 day outlook at a glance

Forecast issued: 17/07/2018 12:18:47

Chat

Your comments and questions. In a resort? Let us know what it's like!


Characters left 250

For terms and conditions see Readers Comments on the Cookie and privacy policy page.